IT9FDP-13 Weather Reports


time (UTC)temp
C
wind
direction
speed
KPH
gust
KPH
rain 1hr
cm
rain 24hr
cm
rain mn
cm
humidity
%
barometer
mb
20260504050528 17 0.0 0.0 0.00 0.00 0.00 56 1018.7
20260504050018 17 158 0.0 1.6 0.00 0.00 0.00 55 1018.6
20260504045527 17 23 0.0 3.2 0.00 0.00 0.00 57 1018.5
20260504045016 17 170 0.0 1.6 0.00 0.00 0.00 58 1018.5
20260504044517 16 158 0.0 1.6 0.00 0.00 0.00 59 1018.4
20260504044024 16 158 0.0 1.6 0.00 0.00 0.00 60 1018.5
20260504043603 16 180 0.0 1.6 0.00 0.00 0.00 62 1018.4
20260504043017 16 180 0.0 1.6 0.00 0.00 0.00 63 1018.4
20260504042516 15 0.0 0.0 0.00 0.00 0.00 64 1018.4
20260504042021 15 180 0.0 1.6 0.00 0.00 0.00 65 1018.3
20260504041535 15 180 0.0 1.6 0.00 0.00 0.00 65 1018.2
20260504041020 15 186 0.0 3.2 0.00 0.00 0.00 65 1018.3
20260504040517 15 0.0 0.0 0.00 0.00 0.00 65 1018.2
20260504040019 15 0.0 0.0 0.00 0.00 0.00 65 1018.3
20260504035516 15 180 0.0 1.6 0.00 0.00 0.00 65 1018.3
20260504035017 15 173 0.0 3.2 0.00 0.00 0.00 64 1018.3
20260504034517 15 186 1.6 3.2 0.00 0.00 0.00 65 1018.2
20260504034019 15 188 1.6 3.2 0.00 0.00 0.00 65 1018.3
20260504033540 15 177 1.6 3.2 0.00 0.00 0.00 65 1018.3
20260504033017 15 179 1.6 3.2 0.00 0.00 0.00 65 1018.3
20260504032523 15 0.0 0.0 0.00 0.00 0.00 65 1018.3
20260504032022 15 173 0.0 3.2 0.00 0.00 0.00 66 1018.3
20260504031516 15 164 0.0 1.6 0.00 0.00 0.00 68 1018.3
20260504031025 15 168 0.0 1.6 0.00 0.00 0.00 68 1018.3
20260504030518 15 0.0 0.0 0.00 0.00 0.00 68 1018.3
20260504030022 16 180 0.0 1.6 0.00 0.00 0.00 68 1018.3
20260504025516 16 180 0.0 1.6 0.00 0.00 0.00 68 1018.2
20260504025024 16 191 1.6 3.2 0.00 0.00 0.00 67 1018.2
20260504024519 16 187 1.6 3.2 0.00 0.00 0.00 67 1018.2
20260504024023 16 197 1.6 4.8 0.00 0.00 0.00 67 1018.3
20260504023527 16 190 1.6 4.8 0.00 0.00 0.00 66 1018.3
20260504023021 16 183 0.0 3.2 0.00 0.00 0.00 65 1018.3
20260504022517 15 0.0 0.0 0.00 0.00 0.00 65 1018.3
20260504022047 15 0.0 0.0 0.00 0.00 0.00 65 1018.4
20260504021522 15 0.0 0.0 0.00 0.00 0.00 65 1018.6
20260504021058 15 0.0 0.0 0.00 0.00 0.00 65 1018.6
20260504020545 15 0.0 0.0 0.00 0.00 0.00 65 1018.6
20260504020024 15 0.0 0.0 0.00 0.00 0.00 65 1018.5
20260504015518 15 0.0 0.0 0.00 0.00 0.00 65 1018.5
20260504015019 15 0.0 0.0 0.00 0.00 0.00 65 1018.5
20260504014517 15 0.0 0.0 0.00 0.00 0.00 65 1018.5
20260504014016 15 0.0 0.0 0.00 0.00 0.00 66 1018.5
20260504013516 15 0.0 0.0 0.00 0.00 0.00 66 1018.5
20260504013026 15 0.0 0.0 0.00 0.00 0.00 67 1018.6
20260504012523 15 0.0 0.0 0.00 0.00 0.00 68 1018.6
20260504012025 15 0.0 0.0 0.00 0.00 0.00 68 1018.5
20260504011515 15 0.0 0.0 0.00 0.00 0.00 69 1018.5
20260504011047 15 0.0 0.0 0.00 0.00 0.00 69 1018.6
20260504010539 15 0.0 0.0 0.00 0.00 0.00 69 1018.6
20260504010019 15 0.0 0.0 0.00 0.00 0.00 70 1018.5
20260504005519 15 0.0 0.0 0.00 0.00 0.00 70 1018.6
20260504005038 15 0.0 0.0 0.00 0.00 0.00 70 1018.6
20260504004539 15 0.0 0.0 0.00 0.00 0.00 70 1018.6
20260504004025 15 0.0 0.0 0.00 0.00 0.00 70 1018.5
20260504003517 15 0.0 0.0 0.00 0.00 0.00 71 1018.6
20260504003044 16 0.0 0.0 0.00 0.00 0.00 71 1018.5
20260504002516 16 180 0.0 3.2 0.00 0.00 0.00 71 1018.5
20260504002024 15 180 0.0 3.2 0.00 0.00 0.00 71 1018.5
20260504001547 16 180 0.0 1.6 0.00 0.00 0.00 71 1018.6
20260504001028 16 183 0.0 3.2 0.00 0.00 0.00 71 1018.7
20260504000519 16 193 1.6 4.8 0.00 0.00 0.00 71 1018.7
20260504000020 16 186 1.6 3.2 0.00 0.00 0.00 71 1018.7
20260503235517 16 184 0.0 3.2 0.00 0.00 0.00 71 1018.7
20260503235016 16 180 0.0 3.2 0.00 0.00 0.00 71 1018.8
20260503234523 16 180 0.0 1.6 0.00 0.00 0.00 71 1018.8
20260503234026 16 0.0 0.0 0.00 0.00 0.00 71 1018.9
20260503233524 16 180 0.0 1.6 0.00 0.00 0.00 71 1018.9
20260503233018 16 194 0.0 3.2 0.00 0.00 0.00 71 1018.9
20260503232524 16 180 0.0 3.2 0.00 0.00 0.00 71 1018.9
20260503232020 16 193 0.0 3.2 0.00 0.00 0.00 71 1019.0
20260503231521 16 180 0.0 1.6 0.00 0.00 0.00 71 1019.1
20260503231040 16 180 0.0 3.2 0.00 0.00 0.00 71 1019.1
20260503230545 16 180 0.0 1.6 0.00 0.00 0.00 71 1019.0
20260503230018 16 158 0.0 1.6 0.00 0.00 0.00 71 1019.1
20260503225518 16 177 0.0 3.2 0.00 0.00 0.00 71 1019.2
20260503225046 16 186 0.0 3.2 0.00 0.00 0.00 71 1019.3
20260503224516 16 177 0.0 3.2 0.00 0.00 0.00 71 1019.3
20260503224023 16 176 0.0 3.2 0.00 0.00 0.00 71 1019.3
20260503223526 16 180 0.0 3.2 0.00 0.00 0.00 71 1019.2
20260503223019 16 187 1.6 3.2 0.00 0.00 0.00 71 1019.2
20260503222522 16 156 1.6 3.2 0.00 0.00 0.00 71 1019.2
20260503222019 16 138 0.0 3.2 0.00 0.00 0.00 71 1019.1
20260503221519 16 181 1.6 3.2 0.00 0.00 0.00 71 1019.2
20260503221045 16 190 1.6 3.2 0.00 0.00 0.00 71 1019.2
20260503220517 16 185 1.6 4.8 0.00 0.00 0.00 71 1019.1
20260503220018 16 197 1.6 3.2 0.00 0.00 0.00 71 1019.1
20260503215524 16 182 1.6 3.2 0.00 0.00 0.00 71 1019.2
20260503215026 16 175 1.6 4.8 0.00 0.00 0.00 71 1019.2
20260503214516 16 179 1.6 3.2 0.00 0.00 0.00 70 1019.2
20260503214025 16 185 0.0 3.2 0.00 0.00 0.00 70 1019.4
20260503213537 16 180 0.0 3.2 0.00 0.00 0.00 70 1019.3
20260503213026 16 180 1.6 3.2 0.00 0.00 0.00 70 1019.2
20260503212538 16 175 0.0 3.2 0.00 0.00 0.00 70 1019.2
20260503212022 16 210 0.0 4.8 0.00 0.00 0.00 70 1019.1
20260503211517 16 0.0 0.0 0.00 0.00 0.00 70 1019.1
20260503211047 17 0.0 0.0 0.00 0.00 0.00 69 1019.3
20260503210544 17 180 0.0 1.6 0.00 0.00 0.00 69 1019.3
20260503210028 17 204 1.6 3.2 0.00 0.00 0.00 69 1019.2
20260503205556 17 191 1.6 3.2 0.00 0.00 0.00 69 1019.2
20260503205023 17 179 0.0 3.2 0.00 0.00 0.00 69 1019.2
20260503204519 17 185 0.0 3.2 0.00 0.00 0.00 69 1019.0
20260503204021 17 186 0.0 3.2 0.00 0.00 0.00 69 1019.0
20260503203520 17 180 0.0 1.6 0.00 0.00 0.00 68 1018.9
20260503203018 17 186 0.0 4.8 0.00 0.00 0.00 68 1019.0
20260503202517 17 191 1.6 3.2 0.00 0.00 0.00 68 1018.9
20260503202023 17 190 1.6 3.2 0.00 0.00 0.00 68 1019.0
20260503201524 17 205 1.6 4.8 0.00 0.00 0.00 68 1019.0
20260503201019 17 184 1.6 3.2 0.00 0.00 0.00 68 1019.0
20260503200525 17 185 0.0 3.2 0.00 0.00 0.00 68 1018.9
20260503200024 17 198 1.6 4.8 0.00 0.00 0.00 67 1018.9
20260503195515 17 180 1.6 3.2 0.00 0.00 0.00 67 1018.9
20260503195045 17 196 1.6 3.2 0.00 0.00 0.00 67 1018.9
20260503194529 17 184 1.6 3.2 0.00 0.00 0.00 67 1019.1
20260503194027 17 192 1.6 3.2 0.00 0.00 0.00 66 1019.2
20260503193525 17 194 1.6 4.8 0.00 0.00 0.00 66 1019.2
20260503193049 17 189 1.6 3.2 0.00 0.00 0.00 66 1019.3
20260503192539 17 189 1.6 3.2 0.00 0.00 0.00 66 1019.3
20260503192118 17 198 1.6 3.2 0.00 0.00 0.00 66 1019.2
20260503191543 17 180 0.0 3.2 0.00 0.00 0.00 65 1019.2
20260503191018 17 179 1.6 3.2 0.00 0.00 0.00 65 1019.1
20260503190516 17 184 1.6 4.8 0.00 0.00 0.00 65 1019.0
20260503190026 17 202 1.6 3.2 0.00 0.00 0.00 65 1019.1
20260503185522 17 195 1.6 3.2 0.00 0.00 0.00 65 1018.9
20260503185028 17 175 1.6 3.2 0.00 0.00 0.00 65 1018.9
20260503184519 17 196 0.0 3.2 0.00 0.00 0.00 64 1018.9
20260503184027 17 180 0.0 1.6 0.00 0.00 0.00 64 1018.8
20260503183516 17 203 0.0 3.2 0.00 0.00 0.00 64 1018.7
20260503183019 17 181 0.0 3.2 0.00 0.00 0.00 64 1018.7
20260503182522 18 183 1.6 3.2 0.00 0.00 0.00 63 1018.5
20260503182021 18 183 1.6 3.2 0.00 0.00 0.00 63 1018.5
20260503181519 18 179 1.6 4.8 0.00 0.00 0.00 62 1018.4
20260503181022 18 177 1.6 4.8 0.00 0.00 0.00 62 1018.5
20260503180522 18 25 0.0 1.6 0.00 0.00 0.00 61 1018.4
20260503180028 18 17 1.6 6.4 0.00 0.00 0.00 61 1018.3
20260503175524 18 187 3.2 4.8 0.00 0.00 0.00 60 1018.3
20260503175043 18 190 1.6 6.4 0.00 0.00 0.00 60 1018.3
20260503174523 18 182 1.6 4.8 0.00 0.00 0.00 60 1018.2
20260503174024 18 184 1.6 3.2 0.00 0.00 0.00 60 1018.2
20260503173519 18 145 1.6 6.4 0.00 0.00 0.00 60 1018.2
20260503173022 18 184 1.6 4.8 0.00 0.00 0.00 60 1018.1
20260503172527 18 190 0.0 3.2 0.00 0.00 0.00 61 1018.1
20260503172024 18 180 1.6 3.2 0.00 0.00 0.00 61 1018.0
20260503171515 18 185 1.6 6.4 0.00 0.00 0.00 61 1017.9
20260503171017 18 194 3.2 8.0 0.00 0.00 0.00 61 1018.0
20260503170523 18 185 1.6 6.4 0.00 0.00 0.00 60 1018.1
20260503150522 20 191 4.8 9.7 0.00 0.00 0.00 56 1018.2
20260503131025 21 222 6.4 11.3 0.00 0.00 0.00 54 1018.7
20260503130518 21 184 4.8 11.3 0.00 0.00 0.00 54 1018.8
20260503110537 22 193 4.8 11.3 0.00 0.00 0.00 50 1019.1
20260503081524 21 171 1.6 6.4 0.00 0.00 0.00 50 1019.5
20260503081030 21 178 1.6 6.4 0.00 0.00 0.00 50 1019.6
20260503080521 21 173 3.2 6.4 0.00 0.00 0.00 51 1019.7
20260503072520 20 193 1.6 4.8 0.00 0.00 0.00 51 1019.7
20260503072024 21 162 3.2 8.0 0.00 0.00 0.00 51 1019.7
20260503071519 21 195 1.6 14.5 0.00 0.00 0.00 51 1019.7
20260503071043 20 200 1.6 6.4 0.00 0.00 0.00 52 1019.8
20260503070541 20 177 1.6 6.4 0.00 0.00 0.00 52 1019.7
20260503055037 17 165 1.6 6.4 0.00 0.00 0.00 60 1019.9
20260503054518 17 15 1.6 3.2 0.00 0.00 0.00 60 1019.9
20260503054023 17 158 1.6 9.7 0.00 0.00 0.00 60 1019.8
20260503053527 17 172 1.6 8.0 0.00 0.00 0.00 60 1019.8
20260503053024 17 162 1.6 4.8 0.00 0.00 0.00 60 1019.8
20260503052526 17 355 3.2 9.7 0.00 0.00 0.00 60 1019.8
20260503052025 17 353 1.6 8.0 0.00 0.00 0.00 61 1019.8